Porto current weather conditions

sailwx.info

Wind from 320 at 12 knots

Air temperature 18.0° C
Visibility: greater than 5.4 NM
Dewpoint 13.0° C

Last reported at 2015-May-30 14:30 UTC.
Time now 2015-May-30 16:30 UTC

Location: N 41°15' W 008°41'.
View on Google Maps.

See reports from other nearby stations

  
Tides and Currents Weather Stations Pressure Air Temp Water Temp Dewpoint Dewpoint Depression Visibility Wind Speed Wind Dir Waves Ship Positions
date/time (UTC)wind fromknots sea level pressurealtimeterstation pressurevisibilityair tempwater tempwave heightnotes
2015-May-30 15:30 320 14 5.417.0
2015-May-30 15:00 320 14 5.418.0
2015-May-30 14:30 320 12 5.418.0
2015-May-30 14:00 320 13 5.419.0
2015-May-30 13:30 330 13 19.0
2015-May-30 13:00 320 11 19.0
2015-May-30 12:30 320 11 19.0
2015-May-30 12:00 320 11 19.0
2015-May-30 11:30 320 10 19.0
2015-May-30 11:00 320 9 20.0
2015-May-30 10:30 310 7 19.0
2015-May-30 10:00 290 6 19.0
2015-May-30 09:30 300 5 19.0
2015-May-30 09:00 19.0
2015-May-30 08:30 010 3 18.0
2015-May-30 08:00 290 3 17.0
2015-May-30 07:30 290 3 16.0
2015-May-30 07:00 14.0
2015-May-30 06:30 010 5 13.0
2015-May-30 06:00 360 3 11.0
2015-May-30 05:30 010 2 10.0
2015-May-30 05:00 10.0
2015-May-30 04:30 010 3 11.0
2015-May-30 04:00 12.0
2015-May-30 03:30 360 5 12.0
2015-May-30 03:00 350 5 12.0
2015-May-30 02:30 350 6 13.0
2015-May-30 02:00 350 8 12.0
2015-May-30 01:30 340 6 13.0
2015-May-30 01:00 360 5 13.0
2015-May-30 00:30 350 7 13.0
2015-May-30 00:00 350 7 13.0
2015-May-29 23:30 330 8 14.0
2015-May-29 23:00 340 7 13.0
2015-May-29 22:30 340 8 14.0
2015-May-29 22:00 340 7 14.0
2015-May-29 21:30 350 9 14.0
2015-May-29 21:00 340 10 14.0
2015-May-29 20:30 350 11 15.0
2015-May-29 20:00 340 10 16.0
2015-May-29 19:30 340 12 17.0
2015-May-29 19:00 340 14 17.0
2015-May-29 18:30 340 15 18.0
2015-May-29 18:00 340 17 19.0
2015-May-29 17:30 340 16 gusting 26 20.0
2015-May-29 17:00 350 15 20.0
2015-May-29 16:30 340 15 21.0
2015-May-29 16:00 340 17 gusting 27 22.0
2015-May-29 15:30 340 15 22.0
2015-May-29 15:00 340 16 23.0
2015-May-29 14:30 340 15 23.0
2015-May-29 14:00 340 18 22.0
2015-May-29 13:30 340 16 23.0
2015-May-29 13:00 340 15 22.0
2015-May-29 12:30 340 14 22.0
2015-May-29 12:00 340 15 22.0
2015-May-29 11:30 340 12 22.0
2015-May-29 11:00 330 9 21.0
2015-May-29 10:30 300 8 20.0
2015-May-29 10:00 310 7 21.0
2015-May-29 09:30 300 7 20.0
2015-May-29 09:00 350 8 21.0
2015-May-29 08:30 350 5 20.0
2015-May-29 08:00 350 3 18.0
2015-May-29 07:30 350 4 17.0
2015-May-29 07:00 010 4 15.0
2015-May-29 06:30 010 3 14.0
2015-May-29 06:00 350 4 13.0
2015-May-29 05:30 11.0
2015-May-29 05:00 350 2 12.0
2015-May-29 04:30 13.0
2015-May-29 04:00 13.0
2015-May-29 03:30 340 4 14.0
2015-May-29 03:00 350 3 14.0
2015-May-29 02:30 360 3 15.0
2015-May-29 02:00 340 4 15.0
2015-May-29 01:30 360 5 15.0
2015-May-29 01:00 350 6 16.0
2015-May-29 00:30 360 4 16.0
2015-May-29 00:00 350 4 16.0
2015-May-28 23:30 360 4 16.0
2015-May-28 23:00 020 2 16.0
2015-May-28 22:30 16.0
2015-May-28 22:00 16.0
2015-May-28 21:30 16.0
2015-May-28 21:00 17.0
2015-May-28 20:30 18.0
2015-May-28 20:00 290 3 20.0
2015-May-28 19:30 300 3 21.0
2015-May-28 19:00 310 3 22.0
2015-May-28 18:30 290 3 5.423.0
2015-May-28 18:00 300 4 24.0
2015-May-28 17:30 330 7 25.0
2015-May-28 17:00 330 8 5.426.0
2015-May-28 16:30 340 9 5.426.0
2015-May-28 16:00 330 9 5.427.0